Time,TemperatureF,DewpointF,PressureIn,WindDirection,WindDirectionDegrees,WindSpeedMPH,WindSpeedGustMPH,Humidity,HourlyPrecipIn,Conditions,Clouds,dailyrainin,SoftwareType,DateUTC
2013-04-18 00:00:00,46.8,41.0,30.48,SW,231,3.0,4.0,80,0.00,,---,0.00,VWS V14.01,2013-04-18 07:00:00,
2013-04-18 00:05:00,46.7,40.5,30.48,SSW,211,4.0,5.0,79,0.00,,---,0.00,VWS V14.01,2013-04-18 07:05:00,
2013-04-18 00:10:00,46.7,40.5,30.48,SSW,196,6.0,8.0,79,0.00,,---,0.00,VWS V14.01,2013-04-18 07:10:00,
2013-04-18 00:15:00,46.5,40.3,30.48,SSW,212,4.0,6.0,79,0.00,,---,0.00,VWS V14.01,2013-04-18 07:15:00,
2013-04-18 00:20:00,46.2,40.1,30.48,SSW,213,9.0,9.0,79,0.00,,---,0.00,VWS V14.01,2013-04-18 07:20:00,
2013-04-18 00:25:00,45.9,39.8,30.49,SSW,209,5.0,8.0,79,0.00,,---,0.00,VWS V14.01,2013-04-18 07:25:00,
2013-04-18 00:30:00,45.8,39.7,30.49,SW,221,3.0,7.0,79,0.00,,---,0.00,VWS V14.01,2013-04-18 07:30:00,
2013-04-18 00:35:00,45.6,39.5,30.49,SSW,213,4.0,4.0,79,0.00,,---,0.00,VWS V14.01,2013-04-18 07:35:00,
2013-04-18 00:40:00,45.5,39.4,30.49,SW,233,5.0,8.0,79,0.00,,---,0.00,VWS V14.01,2013-04-18 07:40:00,
2013-04-18 00:45:00,45.4,39.6,30.49,SW,219,3.0,6.0,80,0.00,,---,0.00,VWS V14.01,2013-04-18 07:45:00,
2013-04-18 00:50:00,45.3,39.2,30.49,SW,225,8.0,9.0,79,0.00,,---,0.00,VWS V14.01,2013-04-18 07:50:00,
2013-04-18 00:55:00,45.3,39.5,30.49,SE,134,9.0,11.0,80,0.00,,---,0.00,VWS V14.01,2013-04-18 07:55:00,
2013-04-18 01:00:00,45.2,39.1,30.49,SW,227,6.0,8.0,79,0.00,,---,0.00,VWS V14.01,2013-04-18 08:00:00,
2013-04-18 01:05:00,45.1,39.0,30.49,SW,217,6.0,11.0,79,0.00,,---,0.00,VWS V14.01,2013-04-18 08:05:00,
2013-04-18 01:10:00,45.1,39.0,30.49,South,175,6.0,6.0,79,0.00,,---,0.00,VWS V14.01,2013-04-18 08:10:00,
2013-04-18 01:15:00,45.0,38.9,30.49,SSW,209,3.0,4.0,79,0.00,,---,0.00,VWS V14.01,2013-04-18 08:15:00,
2013-04-18 01:20:00,45.0,38.9,30.49,SW,215,2.0,6.0,79,0.00,,---,0.00,VWS V14.01,2013-04-18 08:20:00,
2013-04-18 01:25:00,45.0,39.2,30.49,SSW,207,3.0,4.0,80,0.00,,---,0.00,VWS V14.01,2013-04-18 08:25:00,
2013-04-18 01:30:00,44.9,39.1,30.49,SSW,199,3.0,5.0,80,0.00,,---,0.00,VWS V14.01,2013-04-18 08:30:00,
2013-04-18 01:35:00,44.8,38.7,30.49,SW,217,1.0,5.0,79,0.00,,---,0.00,VWS V14.01,2013-04-18 08:35:00,
2013-04-18 01:40:00,44.7,38.6,30.49,SSW,199,4.0,6.0,79,0.00,,---,0.00,VWS V14.01,2013-04-18 08:40:00,
2013-04-18 01:45:00,44.7,38.9,30.49,South,187,5.0,7.0,80,0.00,,---,0.00,VWS V14.01,2013-04-18 08:45:00,
2013-04-18 01:50:00,44.6,38.8,30.50,SSW,207,3.0,5.0,80,0.00,,---,0.00,VWS V14.01,2013-04-18 08:50:00,
2013-04-18 01:55:00,44.5,38.7,30.49,SW,217,4.0,6.0,80,0.00,,---,0.00,VWS V14.01,2013-04-18 08:55:00,
2013-04-18 02:00:00,44.4,38.9,30.50,SSW,194,7.0,7.0,81,0.00,,---,0.00,VWS V14.01,2013-04-18 09:00:00,
2013-04-18 02:05:00,44.4,38.9,30.50,SSW,206,7.0,11.0,81,0.00,,---,0.00,VWS V14.01,2013-04-18 09:05:00,
2013-04-18 02:10:00,44.3,38.8,30.50,SSW,210,6.0,7.0,81,0.00,,---,0.00,VWS V14.01,2013-04-18 09:10:00,
2013-04-18 02:15:00,44.3,38.8,30.50,SSW,196,5.0,8.0,81,0.00,,---,0.00,VWS V14.01,2013-04-18 09:15:00,
2013-04-18 02:20:00,44.2,38.8,30.49,SW,216,2.0,7.0,81,0.00,,---,0.00,VWS V14.01,2013-04-18 09:20:00,
2013-04-18 02:25:00,44.2,39.1,30.50,SSW,204,4.0,7.0,82,0.00,,---,0.00,VWS V14.01,2013-04-18 09:25:00,
2013-04-18 02:30:00,44.2,39.1,30.49,SSW,193,5.0,6.0,82,0.00,,---,0.00,VWS V14.01,2013-04-18 09:30:00,
2013-04-18 02:35:00,44.2,39.1,30.49,SSW,206,5.0,5.0,82,0.00,,---,0.00,VWS V14.01,2013-04-18 09:35:00,
2013-04-18 02:40:00,44.2,39.1,30.49,South,179,4.0,5.0,82,0.00,,---,0.00,VWS V14.01,2013-04-18 09:40:00,
2013-04-18 02:45:00,44.2,39.1,30.49,SSW,195,4.0,4.0,82,0.00,,---,0.00,VWS V14.01,2013-04-18 09:45:00,
2013-04-18 02:50:00,44.2,39.1,30.49,SSW,197,4.0,5.0,82,0.00,,---,0.00,VWS V14.01,2013-04-18 09:50:00,
2013-04-18 02:55:00,44.2,39.1,30.49,SSE,164,4.0,6.0,82,0.00,,---,0.00,VWS V14.01,2013-04-18 09:55:00,
2013-04-18 03:00:00,44.2,39.1,30.49,SSW,205,4.0,6.0,82,0.00,,---,0.00,VWS V14.01,2013-04-18 10:00:00,
2013-04-18 03:05:00,44.2,39.1,30.49,SSW,196,5.0,6.0,82,0.00,,---,0.00,VWS V14.01,2013-04-18 10:05:00,
2013-04-18 03:10:00,44.2,39.1,30.49,SSW,200,2.0,5.0,82,0.00,,---,0.00,VWS V14.01,2013-04-18 10:10:00,
2013-04-18 03:15:00,44.2,39.1,30.49,SSW,198,3.0,6.0,82,0.00,,---,0.00,VWS V14.01,2013-04-18 10:15:00,
2013-04-18 03:21:00,44.2,39.1,30.49,South,188,3.0,7.0,82,0.00,,---,0.00,VWS V14.01,2013-04-18 10:21:00,
2013-04-18 03:26:00,44.2,39.1,30.49,SSW,192,4.0,6.0,82,0.00,,---,0.00,VWS V14.01,2013-04-18 10:26:00,
2013-04-18 03:31:00,44.2,39.1,30.49,SSW,192,5.0,5.0,82,0.00,,---,0.00,VWS V14.01,2013-04-18 10:31:00,
2013-04-18 03:36:00,44.2,39.1,30.49,SSW,197,4.0,6.0,82,0.00,,---,0.00,VWS V14.01,2013-04-18 10:36:00,
2013-04-18 03:41:00,44.3,39.2,30.49,South,184,5.0,8.0,82,0.00,,---,0.00,VWS V14.01,2013-04-18 10:41:00,
2013-04-18 03:46:00,44.2,39.1,30.49,SSW,198,3.0,6.0,82,0.00,,---,0.00,VWS V14.01,2013-04-18 10:46:00,
2013-04-18 03:51:00,44.2,39.1,30.49,SSW,200,6.0,8.0,82,0.00,,---,0.00,VWS V14.01,2013-04-18 10:51:00,
2013-04-18 03:56:00,44.1,39.0,30.49,SSW,204,5.0,6.0,82,0.00,,---,0.00,VWS V14.01,2013-04-18 10:56:00,
2013-04-18 04:01:00,44.1,39.0,30.49,SSW,195,3.0,6.0,82,0.00,,---,0.00,VWS V14.01,2013-04-18 11:01:00,
2013-04-18 04:06:00,44.1,39.0,30.49,South,179,7.0,7.0,82,0.00,,---,0.00,VWS V14.01,2013-04-18 11:06:00,
2013-04-18 04:11:00,44.1,39.3,30.49,SSW,192,4.0,6.0,83,0.00,,---,0.00,VWS V14.01,2013-04-18 11:11:00,
2013-04-18 04:16:00,44.0,39.2,30.49,SW,221,3.0,8.0,83,0.00,,---,0.00,VWS V14.01,2013-04-18 11:16:00,
2013-04-18 04:21:00,43.9,39.1,30.49,SSW,196,7.0,12.0,83,0.00,,---,0.00,VWS V14.01,2013-04-18 11:21:00,
2013-04-18 04:26:00,43.8,39.0,30.49,SSW,207,4.0,9.0,83,0.00,,---,0.00,VWS V14.01,2013-04-18 11:26:00,
2013-04-18 04:31:00,43.8,39.3,30.49,SSW,204,4.0,5.0,84,0.00,,---,0.00,VWS V14.01,2013-04-18 11:31:00,
2013-04-18 04:36:00,43.8,39.3,30.49,SE,144,7.0,9.0,84,0.00,,---,0.00,VWS V14.01,2013-04-18 11:36:00,
2013-04-18 04:41:00,43.7,39.2,30.49,SW,214,7.0,13.0,84,0.00,,---,0.00,VWS V14.01,2013-04-18 11:41:00,
2013-04-18 04:46:00,43.7,39.2,30.49,SSW,193,2.0,6.0,84,0.00,,---,0.00,VWS V14.01,2013-04-18 11:46:00,
2013-04-18 04:51:00,43.7,39.2,30.49,SE,135,6.0,6.0,84,0.00,,---,0.00,VWS V14.01,2013-04-18 11:51:00,
2013-04-18 04:56:00,43.6,39.1,30.49,SSW,206,8.0,12.0,84,0.00,,---,0.00,VWS V14.01,2013-04-18 11:56:00,
2013-04-18 05:01:00,43.6,39.1,30.49,South,181,3.0,7.0,84,0.00,,---,0.00,VWS V14.01,2013-04-18 12:01:00,
2013-04-18 05:06:00,43.6,39.1,30.49,South,182,6.0,7.0,84,0.00,,---,0.00,VWS V14.01,2013-04-18 12:06:00,
2013-04-18 05:11:00,43.6,39.1,30.49,SSW,210,10.0,11.0,84,0.00,,---,0.00,VWS V14.01,2013-04-18 12:11:00,
2013-04-18 05:16:00,43.7,39.2,30.49,South,190,6.0,7.0,84,0.00,,---,0.00,VWS V14.01,2013-04-18 12:16:00,
2013-04-18 05:21:00,43.7,39.2,30.49,South,190,3.0,8.0,84,0.00,,---,0.00,VWS V14.01,2013-04-18 12:21:00,
2013-04-18 05:26:00,43.7,39.2,30.49,SSW,195,6.0,9.0,84,0.00,,---,0.00,VWS V14.01,2013-04-18 12:26:00,
2013-04-18 05:31:00,43.7,39.2,30.48,SSW,194,3.0,9.0,84,0.00,,---,0.00,VWS V14.01,2013-04-18 12:31:00,
2013-04-18 05:36:00,43.7,39.2,30.48,South,190,2.0,7.0,84,0.00,,---,0.00,VWS V14.01,2013-04-18 12:36:00,
2013-04-18 05:41:00,43.6,39.1,30.49,SSE,153,2.0,6.0,84,0.00,,---,0.00,VWS V14.01,2013-04-18 12:41:00,
2013-04-18 05:46:00,43.6,39.4,30.49,SSW,202,6.0,6.0,85,0.00,,---,0.00,VWS V14.01,2013-04-18 12:46:00,
2013-04-18 05:51:00,43.6,39.4,30.49,SSW,213,8.0,12.0,85,0.00,,---,0.00,VWS V14.01,2013-04-18 12:51:00,
2013-04-18 05:56:00,43.6,39.4,30.48,SSW,213,3.0,9.0,85,0.00,,---,0.00,VWS V14.01,2013-04-18 12:56:00,
2013-04-18 06:01:00,43.6,39.1,30.48,SSE,167,2.0,7.0,84,0.00,,---,0.00,VWS V14.01,2013-04-18 13:01:00,
2013-04-18 06:06:00,43.6,39.1,30.48,SSW,196,8.0,8.0,84,0.00,,---,0.00,VWS V14.01,2013-04-18 13:06:00,
2013-04-18 06:11:00,43.6,39.4,30.48,SSW,209,2.0,6.0,85,0.00,,---,0.00,VWS V14.01,2013-04-18 13:11:00,
2013-04-18 06:16:00,43.6,39.4,30.48,SW,232,3.0,5.0,85,0.00,,---,0.00,VWS V14.01,2013-04-18 13:16:00,
2013-04-18 06:21:00,43.6,39.4,30.48,South,182,3.0,8.0,85,0.00,,---,0.00,VWS V14.01,2013-04-18 13:21:00,
2013-04-18 06:26:00,43.6,39.4,30.48,SSE,160,4.0,7.0,85,0.00,,---,0.00,VWS V14.01,2013-04-18 13:26:00,
2013-04-18 06:31:00,43.6,39.4,30.48,SSW,211,3.0,9.0,85,0.00,,---,0.00,VWS V14.01,2013-04-18 13:31:00,
2013-04-18 06:36:00,43.5,39.3,30.49,SW,217,5.0,5.0,85,0.00,,---,0.00,VWS V14.01,2013-04-18 13:36:00,
2013-04-18 06:41:00,43.5,39.3,30.49,SSW,209,4.0,8.0,85,0.00,,---,0.00,VWS V14.01,2013-04-18 13:41:00,
2013-04-18 06:46:00,43.6,39.4,30.49,South,182,1.0,5.0,85,0.00,,---,0.00,VWS V14.01,2013-04-18 13:46:00,
2013-04-18 06:51:00,43.6,39.4,30.48,SSE,167,4.0,4.0,85,0.00,,---,0.00,VWS V14.01,2013-04-18 13:51:00,
2013-04-18 06:56:00,43.6,39.4,30.48,SSW,209,1.0,5.0,85,0.00,,---,0.00,VWS V14.01,2013-04-18 13:56:00,
2013-04-18 07:01:00,43.7,39.5,30.49,South,173,2.0,6.0,85,0.00,,---,0.00,VWS V14.01,2013-04-18 14:01:00,
2013-04-18 07:06:00,43.7,39.5,30.49,SSW,192,2.0,9.0,85,0.00,,---,0.00,VWS V14.01,2013-04-18 14:06:00,
2013-04-18 07:11:00,43.7,39.5,30.49,SSE,165,6.0,7.0,85,0.00,,---,0.00,VWS V14.01,2013-04-18 14:11:00,
2013-04-18 07:16:00,43.7,39.5,30.49,SSE,152,4.0,6.0,85,0.00,,---,0.00,VWS V14.01,2013-04-18 14:16:00,
2013-04-18 07:21:00,43.8,39.6,30.49,South,180,3.0,6.0,85,0.00,,---,0.00,VWS V14.01,2013-04-18 14:21:00,
2013-04-18 07:26:00,43.8,39.6,30.49,SSW,194,3.0,5.0,85,0.00,,---,0.00,VWS V14.01,2013-04-18 14:26:00,
2013-04-18 07:31:00,43.9,40.0,30.49,SSW,207,2.0,4.0,86,0.00,,---,0.00,VWS V14.01,2013-04-18 14:31:00,
2013-04-18 07:36:00,43.9,40.0,30.49,SSW,200,1.0,3.0,86,0.00,,---,0.00,VWS V14.01,2013-04-18 14:36:00,
2013-04-18 07:41:00,43.9,40.0,30.49,South,177,5.0,5.0,86,0.00,,---,0.00,VWS V14.01,2013-04-18 14:41:00,
2013-04-18 07:46:00,43.9,40.3,30.49,South,186,0.0,3.0,87,0.00,,---,0.00,VWS V14.01,2013-04-18 14:46:00,
2013-04-18 07:51:00,44.0,40.4,30.49,South,172,7.0,8.0,87,0.00,,---,0.00,VWS V14.01,2013-04-18 14:51:00,
2013-04-18 07:56:00,44.0,40.1,30.49,SSW,213,3.0,6.0,86,0.00,,---,0.00,VWS V14.01,2013-04-18 14:56:00,
2013-04-18 08:01:00,44.1,40.5,30.49,SSW,196,1.0,2.0,87,0.00,,---,0.00,VWS V14.01,2013-04-18 15:01:00,
2013-04-18 08:06:00,44.3,40.4,30.49,SSE,157,6.0,8.0,86,0.00,,---,0.00,VWS V14.01,2013-04-18 15:06:00,
2013-04-18 08:11:00,44.3,40.4,30.50,South,191,3.0,6.0,86,0.00,,---,0.00,VWS V14.01,2013-04-18 15:11:00,
2013-04-18 08:16:00,44.3,40.4,30.49,SSW,207,4.0,5.0,86,0.00,,---,0.00,VWS V14.01,2013-04-18 15:16:00,
2013-04-18 08:21:00,44.4,40.8,30.50,SW,214,2.0,5.0,87,0.00,,---,0.00,VWS V14.01,2013-04-18 15:21:00,
2013-04-18 08:26:00,44.6,41.0,30.49,SW,217,1.0,4.0,87,0.00,,---,0.00,VWS V14.01,2013-04-18 15:26:00,
2013-04-18 08:31:00,44.7,40.8,30.49,SSE,165,10.0,11.0,86,0.00,,---,0.00,VWS V14.01,2013-04-18 15:31:00,
2013-04-18 08:36:00,44.7,40.8,30.49,SSW,205,5.0,6.0,86,0.00,,---,0.00,VWS V14.01,2013-04-18 15:36:00,
2013-04-18 08:41:00,44.8,40.6,30.49,South,180,4.0,4.0,85,0.00,,---,0.00,VWS V14.01,2013-04-18 15:41:00,
2013-04-18 08:46:00,44.8,40.6,30.49,South,169,6.0,11.0,85,0.00,,---,0.00,VWS V14.01,2013-04-18 15:46:00,
2013-04-18 08:51:00,44.9,40.4,30.50,South,174,7.0,11.0,84,0.00,,---,0.00,VWS V14.01,2013-04-18 15:51:00,
2013-04-18 08:56:00,45.0,40.5,30.50,SW,218,5.0,9.0,84,0.00,,---,0.00,VWS V14.01,2013-04-18 15:56:00,
2013-04-18 09:01:00,45.1,40.6,30.50,SSW,202,8.0,9.0,84,0.00,,---,0.00,VWS V14.01,2013-04-18 16:01:00,
2013-04-18 09:06:00,45.2,40.7,30.50,SSW,200,5.0,5.0,84,0.00,,---,0.00,VWS V14.01,2013-04-18 16:06:00,
2013-04-18 09:11:00,45.3,40.8,30.50,SSE,164,1.0,8.0,84,0.00,,---,0.00,VWS V14.01,2013-04-18 16:11:00,
2013-04-18 09:16:00,45.3,40.8,30.50,SSW,199,6.0,9.0,84,0.00,,---,0.00,VWS V14.01,2013-04-18 16:16:00,
2013-04-18 09:21:00,45.4,40.9,30.49,South,174,5.0,7.0,84,0.00,,---,0.00,VWS V14.01,2013-04-18 16:21:00,
2013-04-18 09:26:00,45.4,40.9,30.49,SW,214,5.0,8.0,84,0.00,,---,0.00,VWS V14.01,2013-04-18 16:26:00,
2013-04-18 09:31:00,45.5,41.0,30.49,SSW,192,7.0,7.0,84,0.00,,---,0.00,VWS V14.01,2013-04-18 16:31:00,
2013-04-18 09:36:00,45.4,40.5,30.50,South,190,4.0,7.0,83,0.00,,---,0.00,VWS V14.01,2013-04-18 16:36:00,
2013-04-18 09:41:00,45.6,41.0,30.50,South,169,8.0,9.0,84,0.00,,---,0.00,VWS V14.01,2013-04-18 16:41:00,
2013-04-18 09:46:00,45.8,40.9,30.50,South,174,6.0,7.0,83,0.00,,---,0.00,VWS V14.01,2013-04-18 16:46:00,
2013-04-18 09:51:00,45.9,41.0,30.50,South,178,10.0,11.0,83,0.00,,---,0.00,VWS V14.01,2013-04-18 16:51:00,
2013-04-18 09:56:00,45.8,40.9,30.50,South,172,7.0,10.0,83,0.00,,---,0.00,VWS V14.01,2013-04-18 16:56:00,
2013-04-18 10:01:00,45.9,41.0,30.50,SW,223,3.0,6.0,83,0.00,,---,0.00,VWS V14.01,2013-04-18 17:01:00,
2013-04-18 10:06:00,46.0,41.1,30.50,SE,142,2.0,9.0,83,0.00,,---,0.00,VWS V14.01,2013-04-18 17:06:00,
2013-04-18 10:11:00,46.1,41.2,30.50,SE,146,7.0,8.0,83,0.00,,---,0.00,VWS V14.01,2013-04-18 17:11:00,
2013-04-18 10:16:00,46.0,41.1,30.50,South,188,4.0,8.0,83,0.00,,---,0.00,VWS V14.01,2013-04-18 17:16:00,
2013-04-18 10:21:00,46.0,41.1,30.50,SSE,168,2.0,8.0,83,0.00,,---,0.00,VWS V14.01,2013-04-18 17:21:00,
2013-04-18 10:26:00,46.1,41.2,30.50,SSE,158,4.0,8.0,83,0.00,,---,0.00,VWS V14.01,2013-04-18 17:26:00,
2013-04-18 10:31:00,46.1,41.2,30.50,South,182,5.0,10.0,83,0.00,,---,0.00,VWS V14.01,2013-04-18 17:31:00,
2013-04-18 10:36:00,46.1,41.2,30.50,SSE,161,1.0,5.0,83,0.00,,---,0.00,VWS V14.01,2013-04-18 17:36:00,
2013-04-18 10:41:00,46.2,41.3,30.50,South,169,7.0,8.0,83,0.00,,---,0.00,VWS V14.01,2013-04-18 17:41:00,
2013-04-18 10:46:00,46.3,41.4,30.50,South,185,7.0,8.0,83,0.00,,---,0.00,VWS V14.01,2013-04-18 17:46:00,
2013-04-18 10:51:00,46.3,41.4,30.50,SSW,197,4.0,7.0,83,0.00,,---,0.00,VWS V14.01,2013-04-18 17:51:00,
2013-04-18 10:56:00,46.6,42.0,30.49,SSW,199,5.0,5.0,84,0.00,,---,0.00,VWS V14.01,2013-04-18 17:56:00,
2013-04-18 11:01:00,46.9,42.0,30.49,SW,236,5.0,10.0,83,0.00,,---,0.00,VWS V14.01,2013-04-18 18:01:00,
2013-04-18 11:06:00,46.9,41.7,30.49,SSW,192,0.0,6.0,82,0.00,,---,0.00,VWS V14.01,2013-04-18 18:06:00,
2013-04-18 11:11:00,47.1,41.6,30.49,SSW,192,7.0,10.0,81,0.00,,---,0.00,VWS V14.01,2013-04-18 18:11:00,
2013-04-18 11:16:00,47.2,41.7,30.49,SSW,213,6.0,12.0,81,0.00,,---,0.00,VWS V14.01,2013-04-18 18:16:00,
2013-04-18 11:21:00,47.3,41.8,30.49,SSW,205,8.0,14.0,81,0.00,,---,0.00,VWS V14.01,2013-04-18 18:21:00,
2013-04-18 11:26:00,47.4,41.9,30.49,SW,216,5.0,5.0,81,0.00,,---,0.00,VWS V14.01,2013-04-18 18:26:00,
2013-04-18 11:31:00,47.6,41.8,30.49,SSW,205,5.0,9.0,80,0.00,,---,0.00,VWS V14.01,2013-04-18 18:31:00,
2013-04-18 11:36:00,47.7,41.8,30.49,SSE,161,9.0,9.0,80,0.00,,---,0.00,VWS V14.01,2013-04-18 18:36:00,
2013-04-18 11:41:00,47.7,41.8,30.49,South,181,8.0,10.0,80,0.00,,---,0.00,VWS V14.01,2013-04-18 18:41:00,
2013-04-18 11:46:00,47.7,41.8,30.49,SSW,211,4.0,11.0,80,0.00,,---,0.00,VWS V14.01,2013-04-18 18:46:00,
2013-04-18 11:51:00,47.8,41.9,30.49,SW,227,7.0,8.0,80,0.00,,---,0.00,VWS V14.01,2013-04-18 18:51:00,
2013-04-18 11:56:00,47.9,42.0,30.49,SSW,201,8.0,9.0,80,0.00,,---,0.00,VWS V14.01,2013-04-18 18:56:00,
2013-04-18 12:01:00,48.1,41.9,30.49,SSW,212,9.0,9.0,79,0.00,,---,0.00,VWS V14.01,2013-04-18 19:01:00,
2013-04-18 12:06:00,48.1,42.2,30.49,South,190,7.0,11.0,80,0.00,,---,0.00,VWS V14.01,2013-04-18 19:06:00,
2013-04-18 12:11:00,48.3,42.1,30.48,SE,136,9.0,10.0,79,0.00,,---,0.00,VWS V14.01,2013-04-18 19:11:00,
2013-04-18 12:16:00,48.6,42.7,30.48,South,174,6.0,8.0,80,0.00,,---,0.00,VWS V14.01,2013-04-18 19:16:00,
2013-04-18 12:21:00,48.7,42.2,30.48,SSW,199,7.0,12.0,78,0.00,,---,0.00,VWS V14.01,2013-04-18 19:21:00,
2013-04-18 12:26:00,48.7,42.2,30.48,SSW,199,5.0,7.0,78,0.00,,---,0.00,VWS V14.01,2013-04-18 19:26:00,
2013-04-18 12:31:00,49.0,42.8,30.48,SSW,204,7.0,8.0,79,0.00,,---,0.00,VWS V14.01,2013-04-18 19:31:00,
2013-04-18 12:36:00,49.2,42.6,30.48,South,186,7.0,10.0,78,0.00,,---,0.00,VWS V14.01,2013-04-18 19:36:00,
2013-04-18 12:41:00,49.1,42.5,30.47,SW,223,6.0,8.0,78,0.00,,---,0.00,VWS V14.01,2013-04-18 19:41:00,
2013-04-18 12:46:00,49.1,42.5,30.47,SE,130,9.0,9.0,78,0.00,,---,0.00,VWS V14.01,2013-04-18 19:46:00,
2013-04-18 12:51:00,49.3,42.7,30.47,South,176,2.0,6.0,78,0.00,,---,0.00,VWS V14.01,2013-04-18 19:51:00,
2013-04-18 12:56:00,49.4,42.8,30.47,SSE,160,1.0,5.0,78,0.00,,---,0.00,VWS V14.01,2013-04-18 19:56:00,
2013-04-18 13:01:00,49.5,42.9,30.47,SSE,151,5.0,7.0,78,0.00,,---,0.00,VWS V14.01,2013-04-18 20:01:00,
2013-04-18 13:06:00,49.6,42.7,30.46,SSE,161,4.0,6.0,77,0.00,,---,0.00,VWS V14.01,2013-04-18 20:06:00,
2013-04-18 13:11:00,49.7,42.8,30.47,SW,215,7.0,7.0,77,0.00,,---,0.00,VWS V14.01,2013-04-18 20:11:00,
2013-04-18 13:16:00,49.7,42.8,30.47,SSE,167,4.0,7.0,77,0.00,,---,0.00,VWS V14.01,2013-04-18 20:16:00,
2013-04-18 13:21:00,49.6,42.7,30.47,SSW,209,2.0,6.0,77,0.00,,---,0.00,VWS V14.01,2013-04-18 20:21:00,
2013-04-18 13:26:00,49.6,42.7,30.46,SSE,167,8.0,10.0,77,0.00,,---,0.00,VWS V14.01,2013-04-18 20:26:00,
2013-04-18 13:31:00,49.7,42.8,30.46,SE,144,7.0,8.0,77,0.00,,---,0.00,VWS V14.01,2013-04-18 20:31:00,
2013-04-18 13:36:00,49.8,42.9,30.46,SSE,164,1.0,4.0,77,0.00,,---,0.00,VWS V14.01,2013-04-18 20:36:00,
2013-04-18 13:41:00,49.8,42.5,30.46,SSE,165,2.0,6.0,76,0.00,,---,0.00,VWS V14.01,2013-04-18 20:41:00,
2013-04-18 13:46:00,49.9,42.7,30.46,South,186,4.0,6.0,76,0.00,,---,0.00,VWS V14.01,2013-04-18 20:46:00,
2013-04-18 13:51:00,49.8,42.9,30.46,South,184,5.0,7.0,77,0.00,,---,0.00,VWS V14.01,2013-04-18 20:51:00,
2013-04-18 13:56:00,49.9,43.0,30.45,South,175,2.0,6.0,77,0.00,,---,0.00,VWS V14.01,2013-04-18 20:56:00,
2013-04-18 14:01:00,50.2,42.9,30.45,SSW,213,3.0,4.0,76,0.00,,---,0.00,VWS V14.01,2013-04-18 21:01:00,
2013-04-18 14:06:00,50.4,43.1,30.45,SSW,197,2.0,2.0,76,0.00,,---,0.00,VWS V14.01,2013-04-18 21:06:00,
2013-04-18 14:11:00,50.5,42.9,30.45,South,190,3.0,5.0,75,0.00,,---,0.00,VWS V14.01,2013-04-18 21:11:00,
2013-04-18 14:16:00,50.5,42.9,30.45,South,182,5.0,9.0,75,0.00,,---,0.00,VWS V14.01,2013-04-18 21:16:00,
2013-04-18 14:21:00,50.5,42.9,30.45,SSW,203,3.0,5.0,75,0.00,,---,0.00,VWS V14.01,2013-04-18 21:21:00,
2013-04-18 14:26:00,50.5,42.9,30.45,SSW,209,2.0,7.0,75,0.00,,---,0.00,VWS V14.01,2013-04-18 21:26:00,
2013-04-18 14:31:00,50.6,43.0,30.44,South,173,5.0,8.0,75,0.00,,---,0.00,VWS V14.01,2013-04-18 21:31:00,
2013-04-18 14:36:00,50.6,43.0,30.44,SSE,165,2.0,7.0,75,0.00,,---,0.00,VWS V14.01,2013-04-18 21:36:00,
2013-04-18 14:41:00,50.6,43.0,30.44,South,183,3.0,7.0,75,0.00,,---,0.00,VWS V14.01,2013-04-18 21:41:00,
2013-04-18 14:46:00,50.5,43.2,30.44,South,186,4.0,7.0,76,0.00,,---,0.00,VWS V14.01,2013-04-18 21:46:00,
2013-04-18 14:51:00,50.5,43.6,30.44,SE,128,5.0,9.0,77,0.00,,---,0.00,VWS V14.01,2013-04-18 21:51:00,
2013-04-18 14:56:00,50.4,43.8,30.44,South,175,4.0,9.0,78,0.00,,---,0.00,VWS V14.01,2013-04-18 21:56:00,
2013-04-18 15:01:00,50.2,44.0,30.43,SSW,201,3.0,5.0,79,0.00,,---,0.00,VWS V14.01,2013-04-18 22:01:00,
2013-04-18 15:06:00,50.2,44.3,30.43,SSW,200,6.0,7.0,80,0.00,,---,0.00,VWS V14.01,2013-04-18 22:06:00,
2013-04-18 15:11:00,50.1,44.2,30.43,SSW,198,6.0,10.0,80,0.00,,---,0.00,VWS V14.01,2013-04-18 22:11:00,
2013-04-18 15:16:00,50.1,44.5,30.43,SSW,198,4.0,9.0,81,0.00,,---,0.00,VWS V14.01,2013-04-18 22:16:00,
2013-04-18 15:21:00,50.0,44.4,30.43,South,191,2.0,5.0,81,0.00,,---,0.00,VWS V14.01,2013-04-18 22:21:00,
2013-04-18 15:26:00,50.1,45.2,30.43,SSW,198,3.0,7.0,83,0.00,,---,0.00,VWS V14.01,2013-04-18 22:26:00,
2013-04-18 15:31:00,50.2,45.6,30.43,South,173,1.0,7.0,84,0.00,,---,0.00,VWS V14.01,2013-04-18 22:31:00,
2013-04-18 15:36:00,50.2,45.2,30.42,SSW,195,4.0,5.0,83,0.00,,---,0.00,VWS V14.01,2013-04-18 22:36:00,
2013-04-18 15:41:00,50.2,45.9,30.42,SSW,202,4.0,7.0,85,0.00,,---,0.00,VWS V14.01,2013-04-18 22:41:00,
2013-04-18 15:46:00,50.1,45.5,30.42,SSE,161,0.0,5.0,84,0.00,,---,0.00,VWS V14.01,2013-04-18 22:46:00,
2013-04-18 15:51:00,50.1,45.5,30.42,SSE,162,4.0,9.0,84,0.00,,---,0.00,VWS V14.01,2013-04-18 22:51:00,
2013-04-18 15:56:00,50.0,45.4,30.42,SSW,193,7.0,10.0,84,0.00,,---,0.00,VWS V14.01,2013-04-18 22:56:00,
2013-04-18 16:01:00,50.0,45.7,30.41,South,169,1.0,6.0,85,0.00,,---,0.00,VWS V14.01,2013-04-18 23:01:00,
2013-04-18 16:06:00,50.1,46.1,30.41,South,190,1.0,5.0,86,0.00,,---,0.00,VWS V14.01,2013-04-18 23:06:00,
2013-04-18 16:11:00,50.1,45.8,30.41,SSE,156,4.0,6.0,85,0.01,,---,0.01,VWS V14.01,2013-04-18 23:11:00,
2013-04-18 16:16:00,50.1,45.8,30.41,South,176,7.0,7.0,85,0.01,,---,0.01,VWS V14.01,2013-04-18 23:16:00,
2013-04-18 16:21:00,50.2,45.9,30.40,South,190,3.0,7.0,85,0.01,,---,0.01,VWS V14.01,2013-04-18 23:21:00,
2013-04-18 16:26:00,50.2,45.6,30.40,South,173,2.0,8.0,84,0.01,,---,0.01,VWS V14.01,2013-04-18 23:26:00,
2013-04-18 16:31:00,50.3,46.0,30.40,SE,140,6.0,6.0,85,0.01,,---,0.01,VWS V14.01,2013-04-18 23:31:00,
2013-04-18 16:36:00,50.3,46.0,30.40,South,178,4.0,7.0,85,0.01,,---,0.01,VWS V14.01,2013-04-18 23:36:00,
2013-04-18 16:41:00,50.2,45.9,30.40,SSE,151,4.0,8.0,85,0.01,,---,0.01,VWS V14.01,2013-04-18 23:41:00,
2013-04-18 16:46:00,50.3,46.3,30.39,SSE,164,1.0,5.0,86,0.01,,---,0.01,VWS V14.01,2013-04-18 23:46:00,
2013-04-18 16:51:00,50.3,46.3,30.39,SSE,157,8.0,8.0,86,0.02,,---,0.02,VWS V14.01,2013-04-18 23:51:00,
2013-04-18 16:56:00,50.3,46.3,30.39,SSE,165,6.0,6.0,86,0.02,,---,0.02,VWS V14.01,2013-04-18 23:56:00,
2013-04-18 17:01:00,50.1,46.1,30.39,SSE,157,5.0,7.0,86,0.02,,---,0.02,VWS V14.01,2013-04-19 00:01:00,
2013-04-18 17:06:00,50.0,46.0,30.39,SSE,153,5.0,6.0,86,0.02,,---,0.02,VWS V14.01,2013-04-19 00:06:00,
2013-04-18 17:11:00,49.8,46.1,30.39,South,179,6.0,6.0,87,0.02,,---,0.03,VWS V14.01,2013-04-19 00:11:00,
2013-04-18 17:16:00,49.8,46.1,30.39,South,190,2.0,3.0,87,0.02,,---,0.03,VWS V14.01,2013-04-19 00:16:00,
2013-04-18 17:21:00,49.7,46.3,30.39,South,189,1.0,4.0,88,0.02,,---,0.03,VWS V14.01,2013-04-19 00:21:00,
2013-04-18 17:26:00,49.6,46.2,30.39,SSW,198,2.0,3.0,88,0.02,,---,0.03,VWS V14.01,2013-04-19 00:26:00,
2013-04-18 17:31:00,49.6,46.5,30.39,SSW,201,3.0,4.0,89,0.03,,---,0.04,VWS V14.01,2013-04-19 00:31:00,
2013-04-18 17:36:00,49.6,46.8,30.39,SSW,192,4.0,4.0,90,0.03,,---,0.04,VWS V14.01,2013-04-19 00:36:00,
2013-04-18 17:41:00,49.5,46.7,30.39,SSW,205,2.0,2.0,90,0.03,,---,0.04,VWS V14.01,2013-04-19 00:41:00,
2013-04-18 17:46:00,49.5,46.7,30.39,South,173,1.0,1.0,90,0.04,,---,0.05,VWS V14.01,2013-04-19 00:46:00,
2013-04-18 17:51:00,49.3,46.5,30.39,SSW,194,0.0,4.0,90,0.03,,---,0.05,VWS V14.01,2013-04-19 00:51:00,
2013-04-18 17:56:00,49.2,46.7,30.39,South,182,6.0,9.0,91,0.04,,---,0.06,VWS V14.01,2013-04-19 00:56:00,
2013-04-18 18:01:00,49.2,46.7,30.39,South,173,2.0,4.0,91,0.04,,---,0.06,VWS V14.01,2013-04-19 01:01:00,
2013-04-18 18:06:00,49.1,46.6,30.39,South,191,2.0,6.0,91,0.04,,---,0.06,VWS V14.01,2013-04-19 01:06:00,
2013-04-18 18:11:00,49.1,46.9,30.38,South,179,4.0,7.0,92,0.03,,---,0.06,VWS V14.01,2013-04-19 01:11:00,
2013-04-18 18:16:00,49.0,46.8,30.38,South,186,4.0,5.0,92,0.04,,---,0.07,VWS V14.01,2013-04-19 01:16:00,
2013-04-18 18:21:00,49.0,46.8,30.38,South,187,5.0,7.0,92,0.04,,---,0.07,VWS V14.01,2013-04-19 01:21:00,
2013-04-18 18:26:00,49.0,47.1,30.38,South,186,3.0,5.0,93,0.04,,---,0.07,VWS V14.01,2013-04-19 01:26:00,
2013-04-18 18:31:00,49.0,47.1,30.38,SSW,197,3.0,7.0,93,0.03,,---,0.07,VWS V14.01,2013-04-19 01:31:00,
2013-04-18 18:36:00,49.0,47.1,30.38,SSW,195,3.0,4.0,93,0.04,,---,0.08,VWS V14.01,2013-04-19 01:36:00,
2013-04-18 18:41:00,49.0,47.1,30.38,SSW,196,4.0,5.0,93,0.04,,---,0.08,VWS V14.01,2013-04-19 01:41:00,
2013-04-18 18:46:00,49.1,47.2,30.38,SSW,209,7.0,7.0,93,0.04,,---,0.08,VWS V14.01,2013-04-19 01:46:00,
2013-04-18 18:51:00,49.1,47.2,30.37,South,188,4.0,6.0,93,0.04,,---,0.09,VWS V14.01,2013-04-19 01:51:00,
2013-04-18 18:56:00,49.1,47.2,30.37,SSE,162,5.0,6.0,93,0.04,,---,0.09,VWS V14.01,2013-04-19 01:56:00,
2013-04-18 19:01:00,49.1,47.2,30.37,SE,140,6.0,9.0,93,0.03,,---,0.09,VWS V14.01,2013-04-19 02:01:00,
2013-04-18 19:06:00,49.1,47.2,30.36,South,186,3.0,7.0,93,0.04,,---,0.10,VWS V14.01,2013-04-19 02:06:00,
2013-04-18 19:11:00,49.1,47.2,30.36,SSE,159,7.0,8.0,93,0.04,,---,0.10,VWS V14.01,2013-04-19 02:11:00,
2013-04-18 19:16:00,49.1,47.2,30.36,SSW,212,4.0,6.0,93,0.03,,---,0.10,VWS V14.01,2013-04-19 02:16:00,
2013-04-18 19:21:00,49.0,47.1,30.36,South,169,9.0,9.0,93,0.03,,---,0.10,VWS V14.01,2013-04-19 02:21:00,
2013-04-18 19:26:00,49.0,47.1,30.36,SE,136,13.0,13.0,93,0.03,,---,0.10,VWS V14.01,2013-04-19 02:26:00,
2013-04-18 19:31:00,48.9,47.0,30.35,South,180,8.0,9.0,93,0.03,,---,0.10,VWS V14.01,2013-04-19 02:31:00,
2013-04-18 19:36:00,49.0,47.1,30.35,South,184,2.0,7.0,93,0.03,,---,0.11,VWS V14.01,2013-04-19 02:36:00,
2013-04-18 19:41:00,49.0,47.1,30.35,SSE,167,8.0,8.0,93,0.03,,---,0.11,VWS V14.01,2013-04-19 02:41:00,
2013-04-18 19:46:00,49.0,47.1,30.35,SSE,151,5.0,7.0,93,0.03,,---,0.11,VWS V14.01,2013-04-19 02:46:00,
2013-04-18 19:51:00,49.0,47.1,30.34,SSE,167,6.0,9.0,93,0.02,,---,0.11,VWS V14.01,2013-04-19 02:51:00,
2013-04-18 19:56:00,49.0,47.1,30.34,South,187,8.0,10.0,93,0.02,,---,0.11,VWS V14.01,2013-04-19 02:56:00,
2013-04-18 20:01:00,49.0,47.1,30.34,SSE,167,8.0,14.0,93,0.02,,---,0.11,VWS V14.01,2013-04-19 03:01:00,
2013-04-18 20:06:00,49.0,46.8,30.34,South,171,7.0,13.0,92,0.01,,---,0.11,VWS V14.01,2013-04-19 03:06:00,
2013-04-18 20:11:00,49.1,46.9,30.35,South,178,7.0,7.0,92,0.02,,---,0.12,VWS V14.01,2013-04-19 03:11:00,
2013-04-18 20:16:00,49.1,46.9,30.34,SW,215,3.0,6.0,92,0.02,,---,0.12,VWS V14.01,2013-04-19 03:16:00,
2013-04-18 20:21:00,49.1,46.9,30.34,SSW,209,5.0,13.0,92,0.02,,---,0.12,VWS V14.01,2013-04-19 03:21:00,
2013-04-18 20:26:00,49.1,47.2,30.34,SSE,161,7.0,13.0,93,0.02,,---,0.12,VWS V14.01,2013-04-19 03:26:00,
2013-04-18 20:31:00,49.1,47.2,30.34,SSW,208,5.0,9.0,93,0.02,,---,0.12,VWS V14.01,2013-04-19 03:31:00,
2013-04-18 20:36:00,49.0,47.1,30.34,SW,214,6.0,12.0,93,0.02,,---,0.12,VWS V14.01,2013-04-19 03:36:00,
2013-04-18 20:41:00,49.0,47.1,30.34,WSW,237,5.0,13.0,93,0.01,,---,0.12,VWS V14.01,2013-04-19 03:41:00,
2013-04-18 20:46:00,49.0,47.1,30.34,South,170,8.0,12.0,93,0.01,,---,0.12,VWS V14.01,2013-04-19 03:46:00,
2013-04-18 20:51:00,49.1,46.9,30.34,South,175,4.0,6.0,92,0.01,,---,0.12,VWS V14.01,2013-04-19 03:51:00,
2013-04-18 20:56:00,49.0,47.1,30.34,SSW,199,4.0,10.0,93,0.01,,---,0.12,VWS V14.01,2013-04-19 03:56:00,
2013-04-18 21:01:00,49.0,47.1,30.33,South,171,4.0,5.0,93,0.01,,---,0.12,VWS V14.01,2013-04-19 04:01:00,
2013-04-18 21:02:00,49.0,47.1,30.33,SW,236,3.0,5.0,93,0.01,,---,0.12,VWS V14.01,2013-04-19 04:02:00,
2013-04-18 21:04:00,48.9,47.0,30.33,SSW,205,5.0,10.0,93,0.02,,---,0.13,VWS V14.01,2013-04-19 04:04:00,
2013-04-18 21:09:00,48.9,47.2,30.33,SSE,148,1.0,5.0,94,0.02,,---,0.13,VWS V14.01,2013-04-19 04:09:00,
2013-04-18 21:14:00,48.9,47.0,30.33,SW,219,0.0,7.0,93,0.01,,---,0.13,VWS V14.01,2013-04-19 04:14:00,
2013-04-18 21:19:00,49.0,47.1,30.33,ESE,106,7.0,8.0,93,0.01,,---,0.13,VWS V14.01,2013-04-19 04:19:00,
2013-04-18 21:24:00,49.0,47.1,30.33,SE,126,5.0,7.0,93,0.01,,---,0.13,VWS V14.01,2013-04-19 04:24:00,
2013-04-18 21:29:00,49.0,47.1,30.33,SSE,161,9.0,9.0,93,0.01,,---,0.13,VWS V14.01,2013-04-19 04:29:00,
2013-04-18 21:34:00,49.0,47.1,30.33,South,171,7.0,10.0,93,0.01,,---,0.13,VWS V14.01,2013-04-19 04:34:00,
2013-04-18 21:39:00,49.1,47.2,30.33,South,182,6.0,11.0,93,0.01,,---,0.13,VWS V14.01,2013-04-19 04:39:00,
2013-04-18 21:44:00,49.1,47.2,30.33,SSE,160,2.0,11.0,93,0.01,,---,0.13,VWS V14.01,2013-04-19 04:44:00,
2013-04-18 21:49:00,49.1,47.2,30.32,SSW,203,8.0,11.0,93,0.01,,---,0.13,VWS V14.01,2013-04-19 04:49:00,
2013-04-18 21:54:00,49.2,47.3,30.32,South,173,4.0,8.0,93,0.01,,---,0.13,VWS V14.01,2013-04-19 04:54:00,
2013-04-18 21:59:00,49.2,47.3,30.32,South,182,7.0,11.0,93,0.01,,---,0.13,VWS V14.01,2013-04-19 04:59:00,
2013-04-18 22:04:00,49.2,47.3,30.31,SSE,168,5.0,10.0,93,0.00,,---,0.13,VWS V14.01,2013-04-19 05:04:00,
2013-04-18 22:09:00,49.2,47.3,30.31,SE,140,5.0,8.0,93,0.00,,---,0.13,VWS V14.01,2013-04-19 05:09:00,
2013-04-18 22:14:00,49.3,47.1,30.31,South,184,2.0,5.0,92,0.00,,---,0.13,VWS V14.01,2013-04-19 05:14:00,
2013-04-18 22:19:00,49.3,47.1,30.30,SSE,161,9.0,9.0,92,0.00,,---,0.13,VWS V14.01,2013-04-19 05:19:00,
2013-04-18 22:24:00,49.4,47.2,30.30,SSW,205,4.0,5.0,92,0.00,,---,0.13,VWS V14.01,2013-04-19 05:24:00,
2013-04-18 22:29:00,49.5,47.3,30.30,SW,214,0.0,11.0,92,0.00,,---,0.13,VWS V14.01,2013-04-19 05:29:00,
2013-04-18 22:34:00,49.5,47.3,30.30,SE,145,7.0,7.0,92,0.00,,---,0.13,VWS V14.01,2013-04-19 05:34:00,
2013-04-18 22:39:00,49.5,47.3,30.29,SSW,208,4.0,10.0,92,0.00,,---,0.13,VWS V14.01,2013-04-19 05:39:00,
2013-04-18 22:44:00,49.5,47.3,30.29,South,173,2.0,12.0,92,0.00,,---,0.13,VWS V14.01,2013-04-19 05:44:00,
2013-04-18 22:49:00,49.5,47.3,30.29,South,184,3.0,6.0,92,0.00,,---,0.13,VWS V14.01,2013-04-19 05:49:00,
2013-04-18 22:54:00,49.5,47.3,30.29,SW,217,5.0,11.0,92,0.00,,---,0.13,VWS V14.01,2013-04-19 05:54:00,
2013-04-18 22:59:00,49.5,47.3,30.29,SW,232,1.0,7.0,92,0.00,,---,0.13,VWS V14.01,2013-04-19 05:59:00,
2013-04-18 23:04:00,49.5,47.3,30.28,SW,214,1.0,1.0,92,0.01,,---,0.14,VWS V14.01,2013-04-19 06:04:00,
2013-04-18 23:09:00,49.4,47.2,30.28,WSW,238,2.0,7.0,92,0.01,,---,0.14,VWS V14.01,2013-04-19 06:09:00,
2013-04-18 23:14:00,49.4,47.2,30.28,SSE,167,4.0,4.0,92,0.01,,---,0.14,VWS V14.01,2013-04-19 06:14:00,
2013-04-18 23:19:00,49.4,47.2,30.28,SSE,161,4.0,9.0,92,0.01,,---,0.14,VWS V14.01,2013-04-19 06:19:00,
2013-04-18 23:24:00,49.4,47.2,30.27,South,173,5.0,5.0,92,0.01,,---,0.14,VWS V14.01,2013-04-19 06:24:00,
2013-04-18 23:29:00,49.4,47.5,30.28,South,186,2.0,15.0,93,0.02,,---,0.15,VWS V14.01,2013-04-19 06:29:00,
2013-04-18 23:34:00,49.3,47.4,30.27,SW,217,7.0,11.0,93,0.02,,---,0.15,VWS V14.01,2013-04-19 06:34:00,
2013-04-18 23:39:00,49.2,47.3,30.27,SSW,192,5.0,9.0,93,0.03,,---,0.16,VWS V14.01,2013-04-19 06:39:00,
2013-04-18 23:44:00,49.1,47.5,30.27,SSW,194,6.0,8.0,94,0.03,,---,0.16,VWS V14.01,2013-04-19 06:44:00,
2013-04-18 23:49:00,49.1,47.5,30.26,SSW,213,4.0,11.0,94,0.04,,---,0.17,VWS V14.01,2013-04-19 06:49:00,
2013-04-18 23:54:00,49.0,47.3,30.26,SSW,200,10.0,13.0,94,0.04,,---,0.17,VWS V14.01,2013-04-19 06:54:00,
2013-04-18 23:59:00,49.0,47.3,30.26,South,175,9.0,12.0,94,0.05,,---,0.18,VWS V14.01,2013-04-19 06:59:00,